User: anonymous   Login
Location: Unspecified
(0.0000°N, 0.0000°E)
Time: 22:45:51
(UTC+00:00)
Language:

STARLINK-33963 - Orbit

View from above orbital plane
View from above orbital plane
View from above satellite
View from above satellite

Ground track
Ground track

The orbit is defined by the following mean orbital elements,

1 63968U          26145.34999001 +.00000000 +00000-0 +56346-3 0 00005
2 63968  43.0017 103.0058 0001633 258.4390 101.6279 15.27594564    04
Epoch (UTC): 25 May 2026 08:23:59
Eccentricity: 0.0001633
inclination: 43.0017°
perigee height: 482 km
apogee height: 484 km
right ascension of ascending node: 103.0058°
argument of perigee: 258.4390°
revolutions per day: 15.27594564
mean anomaly at epoch: 101.6279°

The dashed part of the orbit path shows where the satellite is in the earth's shadow,  

DLR